This demonstration page uses our WeatherBlox Daily Observations layout. Learn more.

Left ArrowRight Arrow

34.02893, -84.19858

Hourly Observations for February 19, 2017

Temp ( °F °C ) Dew Point ( °F °C ) Humidity (%) Winds ( mph kmh ) Pressure ( in mb ) Visibility ( mi km ) Precip ( " mm )
12:44 am 00:44 Partly Cloudy 52 11.1 49 9.4 89 89 Calm 29.97 1015 10 16 0.00 0.00
12:53 am 00:53 Mostly Cloudy 52 11.1 49 9.4 89 89 Calm 29.98 1015 10 16 0.00 0.00
1:30 am 01:30 Partly Cloudy 54 12 48 9 82 82 Calm 29.97 1015 10 16 0.00 0.00
1:53 am 01:53 Mostly Cloudy 49 9.4 47 8.3 93 93 Calm 29.98 1015 7 11 0.00 0.00
2:01 am 02:01 Mostly Cloudy 50 10 48 8.9 93 93 N 3 6 29.97 1015 7 11 0.00 0.00
2:09 am 02:09 Mostly Cloudy 51 10.6 49 9.4 92 92 Calm 29.97 1015 7 11 0.00 0.00
2:19 am 02:19 Mostly Cloudy with Mist and Fog 51 10.6 49 9.4 92 92 Calm 29.97 1015 6 10 0.00 0.00
2:53 am 02:53 Cloudy with Mist and Fog 50 10 48 8.9 93 93 Calm 29.98 1015 4 6 0.00 0.00
3:13 am 03:13 Partly Cloudy with Mist and Fog 48 8.9 47 8.3 96 96 Calm 29.97 1015 1 2 0.00 0.00
3:16 am 03:16 Partly Cloudy with Fog 48 9 46 8 94 94 Calm 29.97 1015 1 1 0.00 0.00
3:53 am 03:53 Cloudy with Mist and Fog 48 8.9 46 7.8 93 93 Calm 29.99 1016 1 1 0.00 0.00
3:57 am 03:57 Cloudy with Mist and Fog 49 9.4 48 8.9 97 97 Calm 29.97 1015 1 2 0.00 0.00
4:07 am 04:07 Cloudy with Mist and Fog 50 10 48 8.9 93 93 N 3 6 30.00 1016 3 5 0.00 0.00
4:53 am 04:53 Cloudy with Mist and Fog 51 10.6 49 9.4 92 92 Calm 30.00 1016 5 8 0.00 0.00
5:53 am 05:53 Cloudy with Mist and Fog 52 11.1 50 10 93 93 Calm 30.01 1016 6 10 0.00 0.00
6:38 am 06:38 Cloudy with Mist and Fog 52 11 50 10 94 94 Calm 30.03 1017 6 10 0.00 0.00
6:48 am 06:48 Cloudy with Mist and Fog 54 12 50 10 88 88 WSW 3 6 30.03 1017 5 8 0.00 0.00
6:53 am 06:53 Mostly Cloudy with Mist and Fog 52 11.1 50 10 93 93 WSW 3 6 30.03 1017 5 8 0.00 0.00
7:53 am 07:53 Cloudy with Mist and Fog 54 12.2 51 10.6 90 90 NW 6 9 30.05 1018 5 8 0.00 0.00
8:22 am 08:22 Mostly Sunny 55 13 52 11 88 88 W 7 11 30.06 1018 8 13 0.00 0.00
8:53 am 08:53 Mostly Sunny 57 13.9 51 10.6 81 81 WNW 6 9 30.06 1018 9 14 0.00 0.00
9:38 am 09:38 Mostly Cloudy 57 14 52 11 82 82 WNW 10 17 30.09 1019 10 16 0.00 0.00
9:53 am 09:53 Cloudy 59 15 51 10.6 75 75 NW 10 17 30.09 1019 10 16 0.00 0.00
10:53 am 10:53 Cloudy 62 16.7 51 10.6 67 67 NNW 14 22 30.10 1019 10 16 0.00 0.00
11:53 am 11:53 Partly Cloudy 64 17.8 50 10 60 60 NW 9 15 30.08 1019 10 16 0.00 0.00
12:53 pm 12:53 Partly Cloudy 65 18.3 49 9.4 56 56 NW 12 19 30.08 1019 10 16 0.00 0.00
1:53 pm 13:53 Mostly Cloudy 66 18.9 48 8.9 52 52 WNW 12 19 30.05 1018 10 16 0.00 0.00
2:53 pm 14:53 Sunny 67 19.4 48 8.9 51 51 WNW 12 19 30.04 1017 10 16 0.00 0.00
3:53 pm 15:53 Sunny 67 19.4 48 8.9 51 51 WNW 10 17 30.07 1018 10 16 0.00 0.00
4:53 pm 16:53 Sunny 67 19.4 48 8.9 51 51 WNW 10 17 30.07 1018 10 16 0.00 0.00
5:53 pm 17:53 Sunny 65 18.3 48 8.9 54 54 W 9 15 30.09 1019 10 16 0.00 0.00
6:53 pm 18:53 Clear 62 16.7 47 8.3 58 58 NW 8 13 30.10 1019 9 14 0.00 0.00
7:53 pm 19:53 Clear 59 15 47 8.3 64 64 NW 7 11 30.09 1019 10 16 0.00 0.00
8:53 pm 20:53 Clear 58 14.4 45 7.2 62 62 VRB 3 6 30.09 1019 10 16 0.00 0.00
9:53 pm 21:53 Clear 55 12.8 44 6.7 67 67 Calm 30.12 1020 10 16 0.00 0.00
10:53 pm 22:53 Clear 52 11.1 44 6.7 75 75 WNW 3 6 30.13 1020 10 16 0.00 0.00
11:53 pm 23:53 Clear 48 8.9 43 6.1 83 83 Calm 30.13 1020 10 16 0.00 0.00

Powered by AerisWeather